| time (UTC) | temp F | wind direction | speed knots | gust knots | rain 1hr in | rain 24hr in | rain mn in | humidity % | barometer mb |
| 20260505070030 | 45 | 256 | 7.0 | 13.9 | 0.00 | 0.03 | 0.00 | 79 | 1008.1 |
| 20260505064530 | 46 | 246 | 7.0 | 13.0 | 0.00 | 0.04 | 0.00 | 79 | 1007.8 |
| 20260505063030 | 46 | 241 | 7.0 | 14.8 | 0.00 | 0.04 | 0.00 | 78 | 1007.4 |
| 20260505061530 | 46 | 266 | 7.8 | 13.0 | 0.00 | 0.04 | 0.00 | 78 | 1007.1 |
| 20260505060032 | 46 | 262 | 7.8 | 13.9 | 0.00 | 0.04 | 0.00 | 78 | 1006.9 |
| 20260505054537 | 46 | 258 | 7.0 | 12.2 | 0.00 | 0.04 | 0.00 | 78 | 1006.7 |
| 20260505053038 | 46 | 271 | 6.1 | 9.6 | 0.00 | 0.04 | 0.00 | 78 | 1006.5 |
| 20260505051528 | 46 | 264 | 5.2 | 9.6 | 0.00 | 0.04 | 0.00 | 78 | 1006.3 |
| 20260505041528 | 48 | 229 | 4.3 | 9.6 | 0.00 | 0.06 | 0.00 | 75 | 1005.6 |
| 20260505040028 | 48 | 265 | 2.6 | 10.4 | 0.00 | 0.06 | 0.00 | 74 | 1005.6 |
| 20260505034529 | 48 | 279 | 2.6 | 12.2 | 0.00 | 0.06 | 0.00 | 74 | 1005.3 |
| 20260505033037 | 48 | 281 | 6.1 | 12.2 | 0.00 | 0.06 | 0.00 | 74 | 1005.1 |
| 20260505031529 | 48 | 267 | 5.2 | 11.3 | 0.00 | 0.06 | 0.00 | 75 | 1004.9 |
| 20260505030029 | 48 | 256 | 4.3 | 14.8 | 0.00 | 0.06 | 0.00 | 74 | 1004.5 |
| 20260505024531 | 48 | 282 | 7.0 | 13.9 | 0.00 | 0.06 | 0.06 | 74 | 1004.3 |
| 20260505023028 | 48 | 262 | 7.8 | 17.4 | 0.00 | 0.06 | 0.06 | 74 | 1004.2 |
| 20260505021528 | 48 | 264 | 6.1 | 15.6 | 0.00 | 0.06 | 0.06 | 74 | 1003.7 |
| 20260505020029 | 48 | 256 | 5.2 | 15.6 | 0.00 | 0.06 | 0.06 | 73 | 1003.6 |
| 20260505014532 | 48 | 247 | 7.0 | 13.9 | 0.00 | 0.07 | 0.06 | 73 | 1003.5 |
| 20260505013031 | 49 | 241 | 6.1 | 14.8 | 0.00 | 0.07 | 0.06 | 72 | 1003.5 |
| 20260505011531 | 49 | 237 | 7.8 | 14.8 | 0.00 | 0.07 | 0.06 | 70 | 1003.4 |
| 20260505010031 | 50 | 242 | 7.8 | 13.9 | 0.00 | 0.07 | 0.06 | 67 | 1003.3 |
| 20260505004539 | 50 | 230 | 5.2 | 12.2 | 0.00 | 0.12 | 0.06 | 66 | 1003.3 |
| 20260505003028 | 51 | 234 | 7.8 | 18.2 | 0.00 | 0.12 | 0.06 | 64 | 1003.0 |
| 20260505001532 | 50 | 250 | 6.1 | 12.2 | 0.00 | 0.12 | 0.06 | 63 | 1002.8 |
| 20260505000034 | 50 | 216 | 6.1 | 10.4 | 0.00 | 0.12 | 0.06 | 63 | 1002.8 |
| 20260504234535 | 50 | 221 | 3.5 | 10.4 | 0.00 | 0.29 | 0.06 | 63 | 1002.5 |
| 20260504233031 | 50 | 219 | 2.6 | 7.8 | 0.00 | 0.29 | 0.06 | 61 | 1002.3 |
| 20260504231540 | 50 | 256 | 1.7 | 6.1 | 0.00 | 0.29 | 0.06 | 60 | 1002.2 |
| 20260504230029 | 51 | 261 | 5.2 | 12.2 | 0.00 | 0.29 | 0.06 | 59 | 1002.1 |
| 20260504224529 | 51 | 253 | 3.5 | 12.2 | 0.00 | 0.37 | 0.06 | 59 | 1002.0 |
| 20260504223030 | 52 | 260 | 7.0 | 12.2 | 0.00 | 0.37 | 0.06 | 57 | 1001.8 |
| 20260504221530 | 52 | 279 | 6.1 | 14.8 | 0.00 | 0.37 | 0.06 | 56 | 1001.5 |
| 20260504220030 | 53 | 258 | 8.7 | 15.6 | 0.00 | 0.37 | 0.06 | 53 | 1001.4 |
| 20260504214535 | 53 | 256 | 9.6 | 21.7 | 0.00 | 0.59 | 0.06 | 54 | 1001.3 |
| 20260504213030 | 54 | 280 | 9.6 | 20.9 | 0.00 | 0.59 | 0.06 | 53 | 1001.1 |
| 20260504211531 | 53 | 268 | 15.6 | 26.1 | 0.00 | 0.59 | 0.06 | 52 | 1000.9 |
| 20260504210030 | 53 | 254 | 12.2 | 28.7 | 0.00 | 0.59 | 0.06 | 57 | 1000.8 |
| 20260504204601 | 53 | 289 | 12.2 | 22.6 | 0.00 | 0.60 | 0.06 | 59 | 1000.5 |
| 20260504203030 | 53 | 273 | 17.4 | 26.9 | 0.00 | 0.60 | 0.06 | 60 | 1000.3 |
| 20260504201530 | 53 | 271 | 19.1 | 29.5 | 0.00 | 0.60 | 0.06 | 62 | 999.9 |
| 20260504200034 | 52 | 262 | 10.4 | 25.2 | 0.00 | 0.60 | 0.06 | 66 | 999.5 |
| 20260504194536 | 53 | 265 | 12.2 | 23.5 | 0.00 | 0.61 | 0.06 | 67 | 999.2 |
| 20260504193028 | 51 | 260 | 13.0 | 22.6 | 0.00 | 0.61 | 0.06 | 71 | 998.9 |
| 20260504191530 | 50 | 288 | 13.0 | 21.7 | 0.00 | 0.61 | 0.06 | 72 | 998.8 |
| 20260504190034 | 50 | 275 | 12.2 | 21.7 | 0.00 | 0.61 | 0.06 | 75 | 998.5 |
| 20260504184530 | 48 | 262 | 12.2 | 20.9 | 0.00 | 0.64 | 0.06 | 77 | 998.5 |
| 20260504183030 | 47 | 284 | 11.3 | 20.0 | 0.00 | 0.64 | 0.06 | 78 | 998.2 |
| 20260504181530 | 47 | 291 | 10.4 | 20.9 | 0.00 | 0.64 | 0.06 | 80 | 997.9 |
| 20260504180028 | 46 | 277 | 9.6 | 22.6 | 0.00 | 0.64 | 0.06 | 80 | 997.8 |
| 20260504174527 | 46 | 264 | 11.3 | 19.1 | 0.00 | 0.64 | 0.06 | 80 | 997.5 |
| 20260504173028 | 45 | 258 | 11.3 | 20.9 | 0.00 | 0.64 | 0.06 | 82 | 997.2 |
| 20260504171540 | 45 | 277 | 12.2 | 19.1 | 0.00 | 0.64 | 0.06 | 82 | 996.9 |
| 20260504081530 | 39 | 181 | 12.2 | 22.6 | 0.00 | 0.61 | 0.03 | 89 | 977.0 |